Location: *
(46.1866°S, 178.5290°W)
Time: 02:50:38
(UTC+00:00)

Daily predictions for brighter satellites

Satellite Brightness Start Highest point End
(mag) Time Altitude Azimuth Time Altitude Azimuth Time Altitude Azimuth
Cosmos 1242 Rocket 4.1 04:58:55 10° SSE 05:01:31 17° ESE 05:04:04 10° ENE
SJ-12 3.9 04:57:38 10° SSE 05:01:48 76° ENE 05:05:54 10° N
SJ 16-02 2.3 05:00:05 10° S 05:03:55 27° ESE 05:07:45 10° ENE
Cosmos 1980 3.9 04:58:49 10° N 05:04:23 59° ENE 05:10:00 10° SSE
Cosmos 405 Rocket 2.8 05:06:21 10° N 05:10:06 60° E 05:13:59 10° SSE
SKYMED 2 3.8 05:07:09 10° N 05:11:32 81° WNW 05:16:00 10° SSW
Cosmos 967 Rocket 4.5 05:06:13 10° SSW 05:12:41 77° SE 05:19:03 10° NE
Meteor PRIRODA 4.1 05:10:28 10° SSE 05:14:07 44° E 05:17:42 10° N
NOSS 0 Rocket 4.0 05:10:01 10° NNW 05:16:15 86° ENE 05:22:33 10° SSE
Cosmos 1606 3.0 05:12:56 10° S 05:16:39 43° ESE 05:20:17 10° NNE
IRIDIUM 106 4.3 05:12:27 10° S 05:17:48 78° E 05:23:03 10° N
CZ-4B R/B 4.2 05:14:31 10° S 05:18:16 66° WSW 05:22:07 10° NNW
SL-16 R/B 3.2 05:14:16 10° NNE 05:18:55 26° ENE 05:23:34 10° SE
ERS-2 3.8 05:18:01 10° E 05:20:12 15° ESE 05:22:23 10° SSE
Cosmos 1867 4.0 05:15:29 10° SSW 05:20:36 41° SE 05:25:42 10° ENE
Meteor 2-19 Rocket 4.4 05:16:53 10° N 05:22:58 78° E 05:29:08 10° SSE
ADEOS 3.9 05:19:39 10° S 05:24:58 73° WSW 05:30:12 10° NNW
Cosmos 1553 Rocket 4.1 05:20:08 10° S 05:26:07 49° ESE 05:32:00 10° NNE
Cosmos 1777 Rocket 4.1 05:22:23 10° SSW 05:27:45 89° WNW 05:33:01 10° NNE
CZ-4B R/B 3.0 05:24:22 10° SSE 05:28:49 70° ENE 05:33:01 10° N
Genesis I 4.2 05:26:51 10° WNW 05:30:38 43° SW 05:34:24 10° SSE
Cosmos 2297 4.1 05:27:23 10° SSW 05:32:53 42° SE 05:38:20 10° NE
Cosmos 1461 3.4 05:33:02 10° SW 05:37:22 70° WNW 05:41:51 10° NNE
PSLV R/B 4.0 05:33:57 10° NNE 05:38:01 57° ESE 05:42:07 10° S
Cosmos 1437 Rocket 2.7 05:35:08 10° SSW 05:39:00 86° W 05:42:50 10° N
Cosmos 1939 Rocket 4.2 05:38:29 18° ESE 05:39:54 21° E 05:43:05 10° NE
Okean O Rocket 3.2 05:40:29 17° E 05:40:29 17° E 05:43:20 10° NE
Cosmos 1943 Rocket 2.7 05:35:46 10° SSW 05:41:04 37° SE 05:46:20 10° ENE
H-2A R/B 3.5 05:39:58 10° S 05:43:47 55° WSW 05:47:30 10° NNW
Cosmos 2333 Rocket 4.1 05:40:13 10° WNW 05:44:53 26° SW 05:49:37 10° S
ATLAS CENTAUR R/B 1.5 05:40:52 10° SSW 05:45:07 50° SE 05:48:40 12° ENE
Cosmos 2237 Rocket 2.4 05:39:48 10° NNW 05:45:29 74° WSW 05:51:16 10° SSE
Cosmos 2098 Rocket 4.2 05:42:50 10° NW 05:45:32 29° WSW 05:48:12 10° SSW
Cosmos 1689 Rocket 2.7 05:43:04 10° NE 05:45:41 31° ESE 05:48:20 10° S
SL-8 R/B 3.8 05:42:06 10° W 05:47:00 76° SSW 05:50:10 22° ESE
Cosmos 1898 Rocket 4.2 05:42:27 10° S 05:47:06 31° ESE 05:51:04 13° ENE
SMAP 3.6 05:43:59 10° SSE 05:48:26 39° E 05:52:49 10° NNE
CENTAUR R/B 4.3 05:43:42 10° WSW 05:49:25 24° SSW 05:54:29 10° SSE
H-2A R/B 4.4 05:48:15 10° NNW 05:51:45 26° W 05:55:16 10° SW
SJ-7 4.5 05:49:07 10° SSE 05:53:21 85° W 05:57:34 10° NNW
Cosmos 2221 4.1 05:50:22 10° SSW 05:54:24 38° W 05:58:24 10° NNW
CZ-4B R/B 2.6 05:52:40 10° N 05:55:38 41° W 05:58:41 10° SSW
USA 234 3.5 05:55:35 20° ESE 06:00:11 53° NE 06:06:35 10° NNW
Cosmos 1766 Rocket 4.3 05:59:16 10° NNE 06:03:16 32° E 06:04:08 29° ESE
Okean 3 Rocket 4.3 05:59:54 10° NNE 06:03:50 31° E 06:04:24 30° ESE
Cosmos 2278 Rocket 4.2 06:04:20 10° SW 06:09:18 31° WNW 06:14:13 10° NNW
MOS 1-B Rocket 4.1 06:04:35 10° NE 06:10:07 51° ESE 06:16:19 10° S
Cosmos 2151 2.9 06:06:16 10° N 06:10:30 89° W 06:14:50 10° S
Cosmos 2369 Rocket 2.8 06:06:33 10° SSW 06:11:44 35° SE 06:13:06 31° E
CZ-2C R/B 3.4 06:09:22 10° N 06:14:55 59° W 06:20:29 10° SSW
Cosmos 2219 Rocket 4.4 06:12:18 10° W 06:16:11 19° SW 06:20:04 10° S
Cosmos 1655 Rocket 4.0 06:11:00 10° N 06:17:17 68° E 06:23:42 10° SSE
Cosmos 2292 Rocket 4.3 06:13:26 10° NNW 06:18:14 76° W 06:24:48 10° S
Meteor 2-21 4.4 06:12:21 10° N 06:18:35 82° E 06:24:53 10° S
Cosmos 1328 Rocket 4.1 06:14:25 10° S 06:18:12 39° ESE 06:18:12 39° ESE
PSLV R/B 3.7 06:17:35 15° S 06:20:39 81° WSW 06:24:23 10° NNW
CZ-4B R/B 3.3 06:18:02 24° SE 06:20:57 46° E 06:26:03 10° N
Cosmos 1633 3.6 06:18:46 10° NNW 06:22:14 45° WSW 06:25:47 10° S
Meteor 2-14 Rocket 4.4 06:18:20 10° N 06:24:32 88° E 06:30:49 10° S
ATLAS 3B R/B 3.7 06:18:36 10° WNW 06:25:44 45° SW 06:31:41 14° SSE
NOAA 11 4.2 06:20:26 10° SSE 06:26:00 86° WSW 06:31:31 10° NNW
Radarsat 4.5 06:22:03 10° SSE 06:27:21 73° ENE 06:32:35 10° N
Cosmos 1782 2.8 06:23:15 10° S 06:27:21 61° ESE 06:27:56 54° ENE
Cosmos 883 Rocket 4.4 06:22:22 10° S 06:28:37 64° E 06:34:50 10° NNE
Meteor 1-26 Rocket 4.3 06:22:46 10° S 06:28:56 86° E 06:34:53 10° N
H-2A R/B 4.2 06:38:00 19° N 06:38:00 19° N 06:39:15 10° N
Lacrosse 5 3.5 06:31:08 10° WSW 06:35:43 33° NW 06:40:16 10° N
CZ-2C R/B 2.8 06:35:00 45° SE 06:36:15 63° E 06:41:01 10° N
Cosmos 1242 Rocket 4.2 06:33:01 10° SSW 06:36:28 35° W 06:39:53 10° NNW
Cosmos 1937 Rocket 3.5 06:33:04 10° SSW 06:38:16 56° ESE 06:38:40 54° E
Cosmos 1933 4.1 06:35:25 10° SSW 06:39:30 53° W 06:43:31 10° N
NOAA 12 4.5 06:35:40 10° S 06:41:01 65° WSW 06:46:16 10° NNW
Meteor 2-6 Rocket 4.3 06:35:52 10° S 06:40:44 48° SE 06:40:44 48° SE
SJ 16-02 3.1 06:38:30 10° SW 06:42:33 34° WNW 06:46:34 10° NNW
Molniya-3 4.0 06:39:56 10° SW 06:42:58 57° NW 06:43:05 56° NW
AQUARIUS 4.4 06:41:25 16° S 06:45:01 68° WSW 06:49:31 10° NNW
Cosmos 1151 Rocket 2.9 06:40:47 10° S 06:45:11 88° W 06:49:33 10° N
PAYLOAD B 4.3 06:39:58 10° SSE 06:45:38 81° WSW 06:51:13 10° NNW
Cosmos 2266 Rocket 3.9 06:39:37 10° N 06:45:44 88° W 06:52:01 10° S
Meteor 2-3 Rocket 4.0 06:41:43 10° NNW 06:47:21 68° WSW 06:53:07 10° S
Cosmos 1763 Rocket 3.4 06:43:50 10° NNW 06:49:10 87° ENE 06:50:52 46° SSE
Cosmos 724 4.1 06:47:16 10° SSW 06:53:05 68° SE 06:53:40 63° E
ERS-2 3.1 06:49:45 10° N 06:53:20 47° W 06:56:58 10° SSW
Cosmos 1607 4.5 06:49:24 10° SW 06:55:25 57° WNW 07:01:31 10° NNE
Cosmos 858 Rocket 4.3 06:52:11 10° SSW 06:57:19 76° SE 06:57:19 76° SE
Radarsat Rocket 4.2 06:56:32 10° SSE 07:02:36 69° WSW 07:08:24 10° NNW
SL-16 R/B 2.9 06:57:08 10° NW 07:02:40 53° WSW 07:05:42 26° S
Cosmos 1939 Rocket 4.2 07:14:22 37° SW 07:14:57 39° WSW 07:18:51 10° NW
NOSS 3-1 (C) 4.0 07:06:32 10° NNW 07:15:19 67° ENE 07:16:24 61° E
Lacrosse 5 rocket 3.4 07:11:53 10° NNW 07:13:46 23° NNW 07:13:46 23° NNW
Okean O Rocket 2.5 07:17:56 48° WNW 07:17:56 48° WNW 07:21:31 10° NNW
Cosmos 2315 Rocket 4.3 07:14:30 10° SSW 07:20:49 66° W 07:27:06 10° N
Cosmos 540 Rocket 4.5 07:15:39 10° NNW 07:18:45 37° NNW 07:18:45 37° NNW
ATLAS CENTAUR R/B 3.8 07:20:34 10° WSW 07:23:36 19° WNW 07:24:54 17° NW
Cosmos 1943 Rocket 3.4 07:19:33 10° SW 07:24:51 40° WNW 07:29:37 12° N
CENTAUR R/B 4.5 07:38:32 10° SW 07:42:06 16° S 07:42:06 16° S
USA 234 3.5 07:42:56 59° SSW 07:43:14 60° SSW 07:49:42 10° WNW
BREEZE M DEB (TANK) 4.4 07:35:45 10° WSW 07:47:06 61° WNW 07:47:06 61° WNW
Cosmos 2369 Rocket 3.4 07:50:33 10° SW 07:54:56 39° W 07:54:56 39° W
